Curtis, Michigan, United States (49820)
Lat: 46.21N, Lon: 85.75W
Wx Zone: MIZ015
Local Info
Past Weather Observations for Today

NOTE: This archive is for the closest National Weather Service station to Curtis. Information may differ from the station used for current weather conditions.

Click here for Long-term Archive

Time Weather Temperature Dewpoint Humidity Pressure Winds Precip Visibility
16:54
Overcast
32°F / 0°C 21°F / -6°C 64% 30.33 in
(1027 mb)
N 16.1 mph
(N 26 kph)
- 10SM
16:34
Overcast
32°F / 0°C 19°F / -7°C 60% 30.33 in
(1027 mb)
N 18.4 mph
(N 30 kph)
- 10SM
16:14
Overcast
32°F / 0°C 21°F / -6°C 64% 30.33 in
(1027 mb)
N 17.3 mph
(N 28 kph)
- 10SM
15:53
Overcast
32°F / 0°C 19°F / -7°C 60% 30.3 in
(1026 mb)
N 16.1 mph
(N 26 kph)
- 10SM
15:34
Overcast
32°F / 0°C 19°F / -7°C 60% 30.3 in
(1026 mb)
N 18.4 mph
(N 30 kph)
- 10SM
15:13
Overcast
32°F / 0°C 21°F / -6°C 64% 30.3 in
(1026 mb)
N 15 mph
(N 24 kph)
- 10SM
14:54
Overcast
32°F / 0°C 21°F / -6°C 64% 30.3 in
(1026 mb)
N 16.1 mph
(N 26 kph)
- 10SM
14:34
Overcast
32°F / 0°C 21°F / -6°C 64% 30.3 in
(1026 mb)
N 18.4 mph
(N 30 kph)
- 10SM
14:14
Overcast
32°F / 0°C 23°F / -5°C 69% 30.3 in
(1026 mb)
N 12.7 mph
(N 20 kph)
- 10SM
13:54
Overcast
32°F / 0°C 21°F / -6°C 64% 30.27 in
(1025 mb)
N 18.4 mph
(N 30 kph)
- 10SM
13:34
Overcast
32°F / 0°C 21°F / -6°C 64% 30.27 in
(1025 mb)
N 16.1 mph
(N 26 kph)
- 10SM
13:14
Overcast
32°F / 0°C 23°F / -5°C 69% 30.27 in
(1025 mb)
N 18.4 mph
(N 30 kph)
- 10SM
12:54
Overcast
32°F / 0°C 21°F / -6°C 64% 30.27 in
(1025 mb)
NNE 15 mph
(NNE 24 kph)
- 10SM
12:33
Overcast
32°F / 0°C 21°F / -6°C 64% 30.27 in
(1025 mb)
NNE 19.6 mph
(NNE 32 kph)
- 10SM
12:14
Overcast
32°F / 0°C 21°F / -6°C 64% 30.27 in
(1025 mb)
N 19.6 mph
(N 32 kph)
- 10SM
11:54
Overcast
32°F / 0°C 23°F / -5°C 69% 30.27 in
(1025 mb)
N 17.3 mph
(N 28 kph)
- 10SM
11:34
Overcast
32°F / 0°C 23°F / -5°C 69% 30.27 in
(1025 mb)
NNE 19.6 mph
(NNE 32 kph)
- 10SM
11:14
Overcast
32°F / 0°C 25°F / -4°C 75% 30.27 in
(1025 mb)
N 15 mph
(N 24 kph)
- 10SM
10:54
Overcast
32°F / 0°C 23°F / -5°C 69% 30.24 in
(1024 mb)
N 24.2 mph
(N 39 kph)
- 10SM
10:34
Overcast
32°F / 0°C 25°F / -4°C 75% 30.24 in
(1024 mb)
NNE 17.3 mph
(NNE 28 kph)
- 10SM
10:14
Overcast
Hazy
30°F / -1°C 25°F / -4°C 80% 30.24 in
(1024 mb)
N 21.9 mph
(N 35 kph)
- 4SM
09:54
Overcast
32°F / 0°C 23°F / -5°C 69% 30.24 in
(1024 mb)
N 24.2 mph
(N 39 kph)
- 10SM
09:34
Overcast
32°F / 0°C 25°F / -4°C 75% 30.24 in
(1024 mb)
NE 13.8 mph
(NE 22 kph)
- 10SM
09:14
Overcast
30°F / -1°C 23°F / -5°C 75% 30.21 in
(1023 mb)
N 15 mph
(N 24 kph)
- 10SM
08:54
Overcast
30°F / -1°C 25°F / -4°C 80% 30.21 in
(1023 mb)
N 20.7 mph
(N 33 kph)
- 10SM
08:34
Overcast
30°F / -1°C 23°F / -5°C 75% 30.21 in
(1023 mb)
N 23 mph
(N 37 kph)
- 10SM
08:14
Overcast
30°F / -1°C 25°F / -4°C 80% 30.21 in
(1023 mb)
N 13.8 mph
(N 22 kph)
- 10SM
07:54
Overcast
30°F / -1°C 25°F / -4°C 80% 30.18 in
(1022 mb)
N 17.3 mph
(N 28 kph)
- 10SM
07:34
Overcast
30°F / -1°C 27°F / -3°C 86% 30.18 in
(1022 mb)
N 12.7 mph
(N 20 kph)
- 10SM
07:13
Overcast
32°F / 0°C 27°F / -3°C 80% 30.15 in
(1021 mb)
N 19.6 mph
(N 32 kph)
- 10SM
06:54
Overcast
32°F / 0°C 27°F / -3°C 80% 30.15 in
(1021 mb)
N 12.7 mph
(N 20 kph)
- 10SM
06:34
Overcast
32°F / 0°C 27°F / -3°C 80% 30.12 in
(1020 mb)
N 12.7 mph
(N 20 kph)
- 10SM
06:14
Overcast
32°F / 0°C 27°F / -3°C 80% 30.12 in
(1020 mb)
N 18.4 mph
(N 30 kph)
- 10SM
05:54
Overcast
32°F / 0°C 27°F / -3°C 80% 30.12 in
(1020 mb)
N 16.1 mph
(N 26 kph)
- 10SM
05:34
Overcast
32°F / 0°C 27°F / -3°C 80% 30.09 in
(1019 mb)
N 17.3 mph
(N 28 kph)
- 10SM
05:14
Overcast
32°F / 0°C 28°F / -2°C 87% 30.09 in
(1019 mb)
N 16.1 mph
(N 26 kph)
- 10SM
04:54
Overcast
32°F / 0°C 30°F / -1°C 93% 30.06 in
(1018 mb)
N 18.4 mph
(N 30 kph)
- 10SM
04:34
Overcast
32°F / 0°C 30°F / -1°C 93% 30.04 in
(1017 mb)
N 18.4 mph
(N 30 kph)
- 7SM
04:14
Overcast
32°F / 0°C 30°F / -1°C 93% 30.04 in
(1017 mb)
N 17.3 mph
(N 28 kph)
- 10SM
03:54
Overcast
32°F / 0°C 30°F / -1°C 93% 30.01 in
(1016 mb)
N 13.8 mph
(N 22 kph)
- 10SM
03:33
Overcast
32°F / 0°C 32°F / 0°C 100% 30.01 in
(1016 mb)
N 12.7 mph
(N 20 kph)
- 10SM
03:14
Overcast
Light Snow
34°F / 1°C 32°F / 0°C 93% 30.01 in
(1016 mb)
N 17.3 mph
(N 28 kph)
- 10SM
02:54
Overcast
34°F / 1°C 32°F / 0°C 93% 29.98 in
(1015 mb)
N 16.1 mph
(N 26 kph)
- 10SM
02:33
Overcast
34°F / 1°C 32°F / 0°C 93% 29.98 in
(1015 mb)
NNE 16.1 mph
(NNE 26 kph)
- 10SM
02:14
Overcast
34°F / 1°C 32°F / 0°C 93% 29.98 in
(1015 mb)
N 16.1 mph
(N 26 kph)
- 10SM
01:53
Overcast
34°F / 1°C 34°F / 1°C 100% 29.95 in
(1014 mb)
NNE 13.8 mph
(NNE 22 kph)
- 10SM
01:34
Overcast
34°F / 1°C 34°F / 1°C 100% 29.95 in
(1014 mb)
NNE 13.8 mph
(NNE 22 kph)
- 10SM
01:14
Overcast
36°F / 2°C 34°F / 1°C 93% 29.95 in
(1014 mb)
NNE 15 mph
(NNE 24 kph)
- 10SM
00:54
Overcast
Light Rain
36°F / 2°C 34°F / 1°C 93% 29.95 in
(1014 mb)
N 11.5 mph
(N 19 kph)
- 10SM
00:34
Overcast
Light Rain
36°F / 2°C 36°F / 2°C 100% 29.95 in
(1014 mb)
N 11.5 mph
(N 19 kph)
- 10SM
00:14
Overcast
Light Rain
36°F / 2°C 36°F / 2°C 100% 29.95 in
(1014 mb)
NNE 9.2 mph
(NNE 15 kph)
- 10SM
Time Weather Temperature Dewpoint Humidity Pressure Winds Precip Visibility


Weather for websites

WeatherForYou.com, LLC is not responsible for any damages or problems caused by this service. Current weather conditions are obtained from the closest station including government and personal stations which may have varying degrees of accuracy. Weather forecasts are derived from the NOAA NDFD. Like all things, this site belongs to Jesus Christ... He just trusts me to maintain it. If you have any questions or comments email webmaster@weatherforyou.com

Copyright © 2014, WeatherForYou.com LLC. All rights reserved.